[[{"header":{"parameterUnit":"m.s-1","parameterCategory":1,"la1":30.2991,"la2":30.254,"lo1":-89.0895,"lo2":-89.0444,"dy":0.0017,"dx":0.0017,"nx":28,"ny":28,"refTime":"2025-05-25T03:00:00:Z","depth":0,"parameterNumber":2,"parameterNumberName":"U-component_of_WINDS"},"data":[0,0,0,0,0,0,0,0,0,0,0,0,0,0,0,0,0,0,0,0,0,0,0,0,0,0,0,0,0,0,0,0,0,0,0,0,0,0,0,0,0,0,0,0,0,0,0,0,0,0,0,0,0,0,0,0,0,0,-0.6955,-0.6955,0,-0.6926,-0.6926,-0.6926,-0.6893,-0.6892,-0.6892,-0.6892,-0.6862,-0.6862,-0.6862,0,0,0,0,0,0,0,0,0,0,0,0,0,-0.6984,-0.6983,-0.6955,-0.6955,-0.6955,-0.6927,-0.6926,-0.6926,-0.6893,-0.6892,-0.6892,-0.6891,-0.6863,-0.6862,-0.6862,0,0,0,0,0,0,0,0,0,0,0,0,0,-0.6965,-0.6983,-0.6955,-0.6935,-0.6933,-0.6927,-0.6926,-0.6926,-0.6893,-0.6892,-0.6892,-0.6891,-0.6863,-0.6862,-0.6862,-0.6874,0,0,-0.686,-0.686,0,0,0,0,0,0,0,0,-0.6966,-0.6964,-0.6938,-0.6936,-0.6934,-0.6913,-0.6925,-0.6908,-0.6893,-0.6908,-0.6891,-0.6891,-0.688,-0.6878,-0.6874,-0.6872,-0.6871,-0.686,-0.686,-0.686,-0.686,0,0,0,0,0,0,0,-0.6967,-0.6965,-0.6944,-0.6938,-0.6935,-0.6928,-0.6924,-0.6922,-0.6898,-0.6907,-0.6904,-0.6901,-0.6878,-0.6875,-0.6873,-0.6871,-0.686,-0.686,-0.686,-0.6859,-0.6879,-0.6879,0,0,0,0,0,0,-0.6972,-0.6966,-0.6945,-0.6943,-0.6948,-0.6928,-0.6924,-0.692,-0.6898,-0.6894,-0.6902,-0.69,-0.6876,-0.6874,-0.6872,-0.6885,-0.686,-0.6859,-0.6859,-0.6878,-0.6879,-0.688,0,0,0,0,0,0,-0.6972,-0.697,-0.6946,-0.6954,-0.695,-0.6928,-0.6924,-0.692,-0.6916,-0.6895,-0.6891,-0.6902,-0.6875,-0.6873,-0.6874,-0.6884,-0.6859,-0.6859,-0.6877,-0.6878,-0.6879,-0.6911,0,0,0,0,0,0,-0.6973,-0.697,-0.6974,-0.6954,-0.695,-0.6948,-0.6925,-0.692,-0.6915,-0.6912,-0.6894,-0.689,-0.6874,-0.6875,-0.6873,-0.6883,-0.6858,-0.6876,-0.6877,-0.6879,-0.6909,-0.6913,-0.6917,0,0,0,0,0,-0.6974,-0.6984,-0.6974,-0.6972,-0.6954,-0.6948,-0.6946,-0.6927,-0.6916,-0.692,-0.6907,-0.6891,-0.6883,-0.6875,-0.6873,-0.6882,-0.6875,-0.6877,-0.6879,-0.6907,-0.6912,-0.6917,0,0,0,0,0,0,-0.7005,-0.6981,-0.697,-0.6973,-0.6963,-0.6943,-0.6947,-0.6933,-0.6926,-0.6923,-0.6901,-0.6897,-0.6901,-0.6892,-0.6884,-0.6894,-0.6877,-0.6878,-0.6899,-0.6904,-0.6908,-0.691,-0.6858,0,0,0,0,0,-0.7013,-0.701,-0.6989,-0.6994,-0.6989,-0.6969,-0.6966,-0.6953,-0.6941,-0.6937,-0.6923,-0.6913,-0.6909,-0.6906,-0.69,-0.6908,-0.6904,-0.6914,-0.6918,-0.6921,-0.6922,-0.6927,-0.6931,-0.6886,-0.6886,-0.6885,0,0,-0.7027,-0.7014,-0.7013,-0.7,-0.699,-0.6988,-0.6966,-0.6964,-0.6963,-0.6936,-0.6937,-0.6927,-0.6914,-0.6919,-0.692,-0.6911,-0.6934,-0.6923,-0.6926,-0.6925,-0.6929,-0.6933,-0.6937,-0.6887,-0.6887,-0.6886,0,0,-0.7053,-0.7043,-0.7046,-0.7037,-0.7024,-0.701,-0.7012,-0.6994,-0.6986,-0.6986,-0.6967,-0.6965,-0.6957,-0.6949,-0.6944,-0.697,-0.6955,-0.6968,-0.6988,-0.6993,-0.6997,-0.7,-0.7009,-0.7013,-0.697,-0.697,-0.697,0,-0.7074,-0.7069,-0.705,-0.705,-0.7045,-0.7022,-0.7026,-0.7018,-0.7004,-0.7001,-0.6991,-0.6982,-0.6972,-0.6975,-0.6981,-0.6978,-0.6979,-0.697,-0.6998,-0.7001,-0.7003,-0.7012,-0.7016,-0.6972,-0.6972,-0.6971,-0.6971,0,-0.7095,-0.7093,-0.7097,-0.7084,-0.708,-0.7082,-0.7063,-0.7062,-0.7049,-0.7038,-0.7039,-0.7026,-0.7018,-0.7018,-0.7006,-0.702,-0.7015,-0.7002,-0.6984,-0.701,-0.7018,-0.7021,-0.6974,-0.6974,-0.6973,-0.6973,0,0,-0.7139,-0.7115,-0.7118,-0.7112,-0.7096,-0.7094,-0.7095,-0.7088,-0.7087,-0.7078,-0.7079,-0.7074,-0.7063,-0.7057,-0.7044,-0.7048,-0.707,-0.7035,-0.7034,-0.7042,-0.7086,-0.7095,-0.7099,-0.706,-0.7061,-0.7061,-0.7087,0,-0.7162,-0.7163,-0.7146,-0.7152,-0.715,-0.7129,-0.7131,-0.7122,-0.7111,-0.7109,-0.7097,-0.7094,-0.7079,-0.7075,-0.7079,-0.7067,-0.7078,-0.7064,-0.7062,-0.7062,-0.7065,-0.7104,-0.7113,-0.7138,-0.709,-0.709,-0.7091,0,-0.7189,-0.7182,-0.7187,-0.7172,-0.7171,-0.7173,-0.7165,-0.7163,-0.7152,-0.7145,-0.7139,-0.7125,-0.7126,-0.711,-0.7112,-0.7103,-0.7102,-0.7096,-0.7096,-0.7095,-0.7077,-0.7103,-0.7145,-0.7149,-0.7095,-0.7095,-0.7094,0,-0.722,-0.7212,-0.7215,-0.7211,-0.7193,-0.7195,-0.7188,-0.7177,-0.7174,-0.7167,-0.7165,-0.7159,-0.7156,-0.7152,-0.7137,-0.7126,-0.7141,-0.7124,-0.7135,-0.7135,-0.7138,-0.7138,-0.7181,-0.7138,-0.7138,-0.7137,-0.7137,0,-0.7248,-0.7252,-0.7229,-0.7231,-0.7236,-0.7217,-0.7223,-0.7214,-0.7204,-0.7204,-0.7186,-0.7187,-0.7166,-0.7165,-0.7153,-0.7157,-0.7156,-0.715,-0.7146,-0.7151,-0.7152,-0.7149,-0.7147,-0.7138,-0.7138,-0.7138,-0.7138,0,-0.7284,-0.7268,-0.727,-0.7254,-0.725,-0.7254,-0.724,-0.7242,-0.7231,-0.7231,-0.723,-0.7213,-0.7211,-0.7195,-0.7189,-0.7181,-0.719,-0.7183,-0.7193,-0.7191,-0.7203,-0.7203,-0.7245,-0.725,-0.7204,-0.7205,-0.7205,0,-0.7302,-0.7305,-0.729,-0.7288,-0.7282,-0.728,-0.7277,-0.726,-0.7257,-0.7247,-0.725,-0.7246,-0.7242,-0.7239,-0.7226,-0.7222,-0.7215,-0.7231,-0.7214,-0.722,-0.7216,-0.7216,-0.7216,-0.7234,-0.7234,-0.7235,-0.7235,0,-0.7337,-0.733,-0.7326,-0.732,-0.7317,-0.7312,-0.7305,-0.7305,-0.7286,-0.7285,-0.7282,-0.7279,-0.7273,-0.727,-0.7264,-0.7257,-0.7243,-0.7241,-0.7243,-0.7248,-0.7254,-0.7251,-0.7203,-0.724,-0.7239,-0.7239,-0.7239,-0.7238,-0.7365,-0.7367,-0.7357,-0.7354,-0.7347,-0.7342,-0.7342,-0.7332,-0.7329,-0.7323,-0.7313,-0.7313,-0.7303,-0.7294,-0.7288,-0.7288,-0.7279,-0.7283,-0.7284,-0.7285,-0.7288,-0.7254,-0.7286,-0.7286,-0.7286,-0.7286,-0.7286,0,-0.7399,-0.7392,-0.7389,-0.7381,-0.7379,-0.7366,-0.7359,-0.7358,-0.7358,-0.735,-0.7347,-0.7345,-0.7342,-0.7329,-0.7325,-0.7327,-0.7321,-0.7327,-0.7326,-0.7325,-0.7295,-0.7293,-0.7332,-0.7332,-0.7332,-0.7332,-0.7332,-0.7332,-0.7417,-0.742,-0.7412,-0.7412,-0.7405,-0.7404,-0.7401,-0.7396,-0.739,-0.7388,-0.7386,-0.7378,-0.7369,-0.7364,-0.7361,-0.7358,-0.7357,-0.7365,-0.736,-0.7332,-0.7327,-0.7323,-0.7321,-0.7365,-0.7365,-0.739,-0.7391,-0.7391]},{"header":{"parameterUnit":"m.s-1","parameterCategory":1,"la1":30.2991,"la2":30.254,"lo1":-89.0895,"lo2":-89.0444,"dy":0.0017,"dx":0.0017,"nx":28,"ny":28,"refTime":"2025-05-25T03:00:00:Z","depth":0,"parameterNumber":3,"parameterNumberName":"V-component_of_WINDS"},"data":[0,0,0,0,0,0,0,0,0,0,0,0,0,0,0,0,0,0,0,0,0,0,0,0,0,0,0,0,0,0,0,0,0,0,0,0,0,0,0,0,0,0,0,0,0,0,0,0,0,0,0,0,0,0,0,0,0,0,4.0714,4.0713,0,4.0699,4.0699,4.0699,4.0669,4.0668,4.0668,4.0667,4.0652,4.0652,4.0652,0,0,0,0,0,0,0,0,0,0,0,0,0,4.0716,4.0716,4.0714,4.0713,4.0713,4.0699,4.0699,4.0699,4.0669,4.0668,4.0667,4.0667,4.0652,4.0652,4.0652,0,0,0,0,0,0,0,0,0,0,0,0,0,4.071,4.0716,4.0714,4.0697,4.0695,4.0699,4.0699,4.0698,4.0669,4.0668,4.0667,4.0666,4.0652,4.0652,4.0652,4.0671,0,0,4.0653,4.0653,0,0,0,0,0,0,0,0,4.071,4.071,4.0699,4.0698,4.0696,4.0685,4.0694,4.0689,4.0669,4.0679,4.0667,4.0666,4.0664,4.0663,4.0662,4.0671,4.067,4.0653,4.0653,4.0653,4.0653,0,0,0,0,0,0,0,4.0711,4.071,4.0708,4.0699,4.0697,4.069,4.0688,4.0693,4.0676,4.0678,4.0676,4.0674,4.0662,4.0662,4.0661,4.067,4.0653,4.0653,4.0653,4.0653,4.0694,4.0695,0,0,0,0,0,0,4.0714,4.0711,4.0708,4.0707,4.0701,4.0691,4.0689,4.0689,4.0676,4.0673,4.0675,4.0673,4.0662,4.0661,4.0661,4.0683,4.0653,4.0653,4.0654,4.0693,4.0694,4.0695,0,0,0,0,0,0,4.0714,4.0714,4.0709,4.0708,4.0707,4.0692,4.0693,4.0689,4.0689,4.0674,4.0671,4.0678,4.0661,4.066,4.0669,4.0682,4.0654,4.0654,4.0692,4.0693,4.0695,4.0726,0,0,0,0,0,0,4.0714,4.0714,4.0721,4.0709,4.0707,4.0717,4.0693,4.069,4.0689,4.0686,4.0676,4.0673,4.066,4.0669,4.0669,4.0681,4.0654,4.0691,4.0693,4.0694,4.0724,4.0729,4.0732,0,0,0,0,0,4.0714,4.073,4.0721,4.0721,4.0716,4.0718,4.0717,4.0703,4.069,4.0697,4.0688,4.0673,4.068,4.067,4.067,4.0683,4.069,4.0692,4.0694,4.0722,4.0728,4.0732,0,0,0,0,0,0,4.0744,4.0728,4.0718,4.0731,4.0726,4.0713,4.0721,4.0709,4.0707,4.0705,4.0687,4.0684,4.0696,4.069,4.0679,4.0701,4.0683,4.0685,4.0704,4.0709,4.0713,4.0714,4.0654,0,0,0,0,0,4.0752,4.0755,4.0741,4.0754,4.0752,4.0737,4.0738,4.0727,4.0721,4.0719,4.071,4.0705,4.0706,4.0707,4.0708,4.0723,4.0721,4.0732,4.0736,4.074,4.0742,4.075,4.0755,4.0702,4.0702,4.0702,0,0,4.0769,4.0761,4.0764,4.076,4.0755,4.0759,4.0736,4.0741,4.0743,4.072,4.0727,4.0721,4.0714,4.0727,4.0732,4.0722,4.0756,4.0742,4.0745,4.0745,4.0753,4.0758,4.0762,4.0704,4.0703,4.0703,0,0,4.0801,4.0795,4.0805,4.0801,4.0794,4.0784,4.0786,4.0775,4.077,4.0777,4.076,4.0763,4.0765,4.0761,4.0759,4.0791,4.0777,4.0792,4.0814,4.0822,4.0826,4.0829,4.0841,4.0845,4.0794,4.0794,4.0794,0,4.0823,4.0828,4.0812,4.0818,4.0817,4.0796,4.0806,4.0802,4.0796,4.0795,4.0785,4.0788,4.0782,4.0793,4.0801,4.08,4.0802,4.0793,4.0827,4.083,4.0833,4.0844,4.0848,4.0796,4.0795,4.0795,4.0795,0,4.0855,4.0859,4.0868,4.0862,4.0862,4.087,4.0855,4.0857,4.0847,4.0838,4.0846,4.0838,4.0836,4.0838,4.0828,4.0848,4.0843,4.083,4.0811,4.084,4.085,4.0854,4.0798,4.0798,4.0797,4.0797,0,0,4.0906,4.0891,4.0895,4.0892,4.0883,4.0885,4.0893,4.0891,4.0893,4.0889,4.0895,4.0898,4.0886,4.0884,4.0873,4.088,4.0906,4.0866,4.0866,4.0874,4.0928,4.0938,4.0943,4.0897,4.0898,4.0898,4.0929,0,4.0936,4.0948,4.0934,4.0948,4.0952,4.0932,4.0938,4.0934,4.0926,4.0928,4.0919,4.0921,4.0905,4.0904,4.091,4.0901,4.0917,4.0899,4.0902,4.0903,4.0905,4.0948,4.0958,4.0988,4.0933,4.0933,4.0934,0,4.0973,4.0971,4.0986,4.0976,4.0977,4.0983,4.0981,4.0983,4.0977,4.0971,4.0969,4.0956,4.0963,4.0945,4.0954,4.0942,4.0943,4.0939,4.094,4.0939,4.092,4.0949,4.0997,4.1001,4.0939,4.0939,4.0939,0,4.1009,4.101,4.1019,4.1017,4.1006,4.1011,4.1006,4.0999,4.1,4.0998,4.0997,4.0996,4.0996,4.0995,4.0982,4.0971,4.0993,4.0974,4.0988,4.0989,4.0994,4.0994,4.1042,4.0994,4.0994,4.0994,4.0994,0,4.1044,4.1054,4.1035,4.1041,4.1052,4.1036,4.1047,4.104,4.1034,4.1039,4.1021,4.1026,4.1008,4.1011,4.1001,4.101,4.101,4.1005,4.1002,4.1007,4.1007,4.1007,4.1004,4.0995,4.0995,4.0995,4.0995,0,4.1086,4.1074,4.1082,4.1071,4.1068,4.1077,4.1067,4.1072,4.1063,4.1069,4.1069,4.1055,4.1057,4.1044,4.1044,4.1037,4.1052,4.1045,4.1054,4.1052,4.1067,4.1065,4.1117,4.1122,4.1071,4.1071,4.1072,0,4.111,4.1117,4.1106,4.1108,4.1104,4.1107,4.1107,4.1092,4.1092,4.1087,4.1092,4.1093,4.1093,4.1097,4.1087,4.1087,4.1081,4.1099,4.108,4.1085,4.1081,4.1081,4.1082,4.1102,4.1103,4.1103,4.1104,0,4.1153,4.1147,4.1147,4.1146,4.1147,4.1145,4.1142,4.1144,4.1127,4.1129,4.1131,4.1131,4.1131,4.1132,4.113,4.1125,4.1112,4.111,4.1113,4.1118,4.1122,4.112,4.1064,4.1109,4.1108,4.1108,4.1108,4.1107,4.1187,4.1192,4.1186,4.1187,4.1183,4.1181,4.1185,4.1177,4.1178,4.1177,4.1168,4.1172,4.1166,4.1161,4.1158,4.1161,4.1152,4.1157,4.1158,4.116,4.1163,4.1122,4.1161,4.116,4.116,4.116,4.116,0,4.1229,4.1224,4.1226,4.1222,4.1223,4.1211,4.1207,4.1209,4.1212,4.1208,4.1208,4.121,4.1211,4.1202,4.1201,4.1206,4.12,4.1206,4.1206,4.1205,4.117,4.1167,4.1211,4.1211,4.1211,4.1211,4.1211,4.1211,4.1252,4.1261,4.1253,4.126,4.1255,4.1259,4.1257,4.1255,4.1252,4.1255,4.1256,4.125,4.1243,4.1242,4.1243,4.124,4.1241,4.1249,4.1245,4.1212,4.1207,4.1203,4.12,4.125,4.125,4.1279,4.1279,4.1279]}]]